Home   Weather   Medford   Past weeks

Flag for USA Past Weather in Medford, Oregon, USA — Yesterday and Last 2 Weeks

Now
47 °F

Clear.


Feels Like: 46 °F
Forecast: 44 / 59 °F
Wind: 3 mph from Northeast

Location: Rogue Valley International Airport

Current Time: Apr 23, 2017 at 5:08:07 am

Latest Report: Apr 23, 2017 at 3:53 am


Visibility: 10 mi

Pressure: 29.98 "Hg

Humidity: 74%

Dew Point: 39 °F

Location of MedfordLocation

Past Weather in Medford — Graph

°F

Medford Temperature Yesterday

Maximum temperature yesterday: 66 °F (at 12:53 pm)
Minimum temperature yesterday: 47 °F (at 2:53 am)
Average temperature yesterday: 58 °F

High & Low Weather Summary for the Past Weeks

 TemperatureHumidityPressure
High75 °F (Apr 21, 4:53 pm)100% (Apr 13, 3:53 am)30.37 "Hg (Apr 13, 3:53 am)
Low32 °F (Apr 9, 4:53 am)28% (Apr 21, 5:53 pm)29.64 "Hg (Apr 11, 7:53 pm)
Average50 °F69%30.02 "Hg
* Reported Apr 8 3:53 am — Apr 23 3:53 am, Medford, Weather by CustomWeather, © 2017

Note: Actual official high and low records may vary slightly from our data, if they occured in-between our weather recording intervals... More about our weather records

Advertising

Medford Weather History for the Previous 24 Hours

Scroll right to see more
 ConditionsComfort  
Time TempWeatherWind HumidityBarometerVisibility
3:53 am
Sun, Apr 23
47 °FClear.3 mph74%29.98 "Hg10 mi
2:53 am50 °FPassing clouds.7 mph66%29.96 "Hg10 mi
1:53 am51 °FPassing clouds.7 mph66%29.97 "Hg10 mi
12:53 am52 °FPartly cloudy.5 mph66%29.97 "Hg10 mi
11:53 pm
Sat, Apr 22
54 °FOvercast.8 mph59%29.97 "Hg10 mi
10:53 pm55 °FOvercast.10 mph55%29.97 "Hg10 mi
9:53 pm56 °FPassing clouds.8 mph51%29.97 "Hg10 mi
8:53 pm57 °FPassing clouds.7 mph49%29.96 "Hg10 mi
7:53 pm59 °FSunny.9 mph46%29.95 "Hg10 mi
6:53 pm61 °FSunny.9 mph42%29.94 "Hg10 mi
5:53 pm63 °FSunny.14 mph40%29.94 "Hg10 mi
4:53 pm64 °FPassing clouds.14 mph41%29.94 "Hg10 mi
3:53 pm64 °FPassing clouds.10 mph41%29.95 "Hg10 mi
2:53 pm65 °FPartly sunny.13 mph40%29.96 "Hg10 mi
1:53 pm65 °FScattered clouds.15 mph40%29.95 "Hg10 mi
12:53 pm66 °FScattered clouds.9 mph33%29.94 "Hg10 mi
11:53 am64 °FScattered clouds.No wind41%29.94 "Hg10 mi
10:53 am63 °FPartly sunny.13 mph45%29.93 "Hg10 mi
9:53 am63 °FScattered clouds.14 mph38%29.90 "Hg10 mi
8:53 am61 °FScattered clouds.9 mph48%29.91 "Hg10 mi
7:53 am53 °FPartly sunny.5 mph61%29.91 "Hg10 mi
6:53 am51 °FPartly sunny.7 mph69%29.88 "Hg10 mi
5:53 am51 °FOvercast.7 mph74%29.85 "Hg10 mi
Weather by CustomWeather, © 2017

See weather overviewHow to use our weather pages